Location: ????????
(55.6333°N, 37.7000°E)
Time: 01:51:26
(UTC+00:00)

Cosmos 2360 Rocket - Pass Details

Date: 19 May 2025
Orbit: 834 x 842 km, 71.0° (Epoch: 13 June)

Event Time Altitude Azimuth Distance (km) Brightness Sun altitude
Rises 21:26:26 0° 324° (NW) 3,396 6.3 -14.4°
Reaches altitude 10° 21:28:55 10° 320° (NW) 2,458 5.4 -14.4°
Maximum altitude 21:34:23 54° 245° (WSW) 1,012 2.4 -14.4°
Enters shadow 21:37:59 21° 176° (S) 1,788 3.3 -14.4°
